Location: Cerda�ola
(41.4919°N, 2.1403°E)
Time: 01:13:57
(UTC+00:00)

STARLINK-1100 - Pass Details

Date: 29 March 2020
Orbit: 549 x 551 km, 53.0° (Epoch: 27 May)

Event Time Altitude Azimuth Distance (km) Brightness Sun altitude
Rises 19:47:41 0° 308° (NW) 2,723 8.6 -17.8°
Reaches altitude 10° 19:49:56 10° 310° (NW) 1,826 7.4 -18.2°
Maximum altitude 19:54:05 78° 37° (NE) 566 3.5 -18.9°
Enters shadow 19:55:05 50° 112° (ESE) 701 3.7 -19.1°
